Location: Newark
(45.1114°N, 4.8975°E)
Time: 17:24:47
(UTC+00:00)

ISS - Visible Passes

Search period start: 19 July 2019 00:00
Search period end: 29 July 2019 00:00
Orbit: 409 x 418 km, 51.6° (Epoch: 20 July)

Date Brightness Start Highest point End Pass type
(mag) Time Alt. Az. Time Alt. Az. Time Alt. Az.
19 Jul -1.7 00:17:25 10° NW 00:20:24 29° N 00:23:21 10° ENE visible
19 Jul -3.9 01:54:03 10° WNW 01:57:23 90° NW 02:00:42 10° ESE visible
19 Jul -2.0 03:31:50 10° W 03:33:38 14° SW 03:35:25 10° SSW visible
19 Jul -3.8 20:13:28 10° SW 20:16:47 63° SSE 20:20:05 10° ENE visible
19 Jul -2.0 21:50:34 10° W 21:53:39 33° NNW 21:56:42 10° NE visible
19 Jul -1.5 23:28:03 10° NW 23:30:56 26° N 23:33:49 10° ENE visible
20 Jul -3.3 01:04:46 10° NW 01:08:04 59° NNE 01:09:06 37° E visible
20 Jul -2.2 02:45:51 18° S 02:45:51 18° S 02:47:12 10° SSE visible
20 Jul -2.5 21:01:00 10° W 21:04:13 42° NNW 21:07:26 10° NE visible
20 Jul -1.5 22:38:36 10° WNW 22:41:27 25° N 22:44:18 10° ENE visible
21 Jul -2.3 00:15:30 10° NW 00:18:01 36° NNW 00:18:01 36° NNW visible
21 Jul -3.1 20:11:30 10° WSW 20:14:49 60° NNW 20:18:08 10° ENE visible
21 Jul -1.5 21:49:03 10° WNW 21:51:57 26° N 21:54:50 10° NE visible
21 Jul -2.1 23:26:10 10° NW 23:29:15 33° NNE 23:29:24 33° NNE visible
22 Jul -1.7 20:59:28 10° WNW 21:02:27 29° N 21:05:26 10° NE visible
22 Jul -1.8 22:36:49 10° NW 22:39:46 28° N 22:41:11 20° NE visible
23 Jul -1.1 00:13:27 10° WNW 00:13:58 14° WNW 00:13:58 14° WNW visible
23 Jul -2.1 20:09:51 10° W 20:12:58 35° NNW 20:16:05 10° NE visible
23 Jul -1.6 21:47:23 10° NW 21:50:15 26° N 21:53:06 10° ENE visible
23 Jul -1.8 23:24:08 10° NW 23:25:54 27° NW 23:25:54 27° NW visible
24 Jul -1.6 20:57:51 10° WNW 21:00:44 25° N 21:03:34 10° ENE visible
24 Jul -2.5 22:34:48 10° NW 22:37:56 39° NNE 22:37:56 39° NNE visible
25 Jul -1.6 20:08:15 10° WNW 20:11:11 27° N 20:14:06 10° NE visible
25 Jul -2.1 21:45:27 10° NW 21:48:29 31° NNE 21:50:00 21° ENE visible
25 Jul -1.2 23:22:04 10° WNW 23:22:49 16° WNW 23:22:49 16° WNW visible
26 Jul -1.8 20:56:01 10° NW 20:58:57 27° N 21:01:52 10° ENE visible
26 Jul -2.5 22:32:41 10° WNW 22:34:56 39° NW 22:34:56 39° NW visible
27 Jul -1.7 20:06:31 10° WNW 20:09:23 25° N 20:12:15 10° ENE visible
27 Jul -3.1 21:43:19 10° NW 21:46:35 48° NNE 21:47:04 44° NE visible
28 Jul -2.5 20:53:56 10° NW 20:57:05 36° NNE 20:59:14 17° ENE visible
28 Jul -1.7 22:30:36 10° WNW 22:32:02 23° WNW 22:32:02 23° WNW visible
